N5CSU Weather Reports


Display with metric or nautical units.
time (UTC)temp
F
wind
direction
speed
MPH
gust
MPH
rain 1hr
in
rain 24hr
in
rain mn
in
humidity
%
barometer
mb
20260831234007 98 195 0.0 1.0 0.00 0.00 0.00 33 1013.6
20260831233501 98 205 0.0 1.0 0.00 0.00 0.00 33 1013.5
20260831232957 98 192 1.0 1.0 0.00 0.00 0.00 32 1013.4
20260831232452 98 197 0.0 0.0 0.00 0.00 0.00 33 1013.4
20260831231948 98 196 0.0 0.0 0.00 0.00 0.00 33 1013.5
20260831231439 99 253 0.0 1.0 0.00 0.00 0.00 33 1013.3
20260831230935 99 193 0.0 0.0 0.00 0.00 0.00 34 1013.5
20260831230435 99 193 0.0 0.0 0.00 0.00 0.00 33 1013.5
20260831225928 99 204 0.0 0.0 0.00 0.00 0.00 32 1013.5
20260831225425 99 200 0.0 0.0 0.00 0.00 0.00 33 1013.6
20260831224919 99 172 0.0 0.0 0.00 0.00 0.00 35 1013.5
20260831224414 100 135 0.0 0.0 0.00 0.00 0.00 33 1013.8
20260831223909 100 191 0.0 0.0 0.00 0.00 0.00 33 1013.8
20260831223404 100 186 0.0 0.0 0.00 0.00 0.00 34 1013.7
20260831222901 100 200 0.0 0.0 0.00 0.00 0.00 34 1013.7
20260831222356 101 204 0.0 0.0 0.00 0.00 0.00 34 1013.8
20260831221851 101 193 0.0 0.0 0.00 0.00 0.00 33 1013.8
20260831221347 100 194 0.0 0.0 0.00 0.00 0.00 34 1013.8
20260831220842 100 202 0.0 0.0 0.00 0.00 0.00 34 1013.9
20260831220337 100 223 0.0 0.0 0.00 0.00 0.00 34 1014.0
20260831215832 99 187 1.0 1.0 0.00 0.00 0.00 34 1014.1
20260831215328 99 189 0.0 0.0 0.00 0.00 0.00 36 1014.0
20260831214825 98 195 0.0 0.0 0.00 0.00 0.00 36 1014.0
20260831214322 98 218 0.0 0.0 0.00 0.00 0.00 36 1014.1
20260831213816 98 198 0.0 0.0 0.00 0.00 0.00 36 1014.4
20260831213307 98 209 0.0 0.0 0.00 0.00 0.00 37 1014.3
20260831212802 99 271 0.0 0.0 0.00 0.00 0.00 35 1014.3
20260831212259 100 179 1.0 1.0 0.00 0.00 0.00 34 1014.3
20260831211757 101 188 1.0 2.0 0.00 0.00 0.00 33 1014.4
20260831211252 101 221 0.0 0.0 0.00 0.00 0.00 33 1014.5
20260831210747 100 186 1.0 1.0 0.00 0.00 0.00 33 1014.4
20260831210243 101 209 1.0 2.0 0.00 0.00 0.00 33 1014.5
20260831205742 102 179 2.0 2.0 0.00 0.00 0.00 32 1014.5
20260831205239 102 190 1.0 1.0 0.00 0.00 0.00 32 1014.5
20260831204738 101 201 0.0 0.0 0.00 0.00 0.00 33 1014.7
20260831204237 101 207 0.0 1.0 0.00 0.00 0.00 33 1014.8
20260831203737 101 229 0.0 1.0 0.00 0.00 0.00 31 1014.7
20260831203232 100 204 0.0 1.0 0.00 0.00 0.00 32 1014.9
20260831202730 100 232 0.0 1.0 0.00 0.00 0.00 32 1015.0
20260831202225 99 199 1.0 1.0 0.00 0.00 0.00 33 1015.0
20260831201724 99 199 0.0 0.0 0.00 0.00 0.00 34 1015.1
20260831201218 100 189 1.0 1.0 0.00 0.00 0.00 34 1015.2
20260831200714 100 187 1.0 1.0 0.00 0.00 0.00 33 1015.2
20260831200208 100 193 1.0 1.0 0.00 0.00 0.00 33 1015.3
20260831195658 100 186 0.0 0.0 0.00 0.00 0.00 31 1015.4
20260831195154 101 215 0.0 1.0 0.00 0.00 0.00 30 1015.5
20260831194648 101 180 1.0 1.0 0.00 0.00 0.00 32 1015.5
20260831194144 100 223 0.0 0.0 0.00 0.00 0.00 33 1015.6
20260831193638 99 207 1.0 2.0 0.00 0.00 0.00 33 1015.7
20260831193134 98 177 0.0 0.0 0.00 0.00 0.00 35 1015.9
20260831192628 99 190 0.0 0.0 0.00 0.00 0.00 33 1015.9
20260831192124 98 165 2.0 2.0 0.00 0.00 0.00 37 1016.0
20260831191620 98 278 0.0 1.0 0.00 0.00 0.00 36 1015.8
20260831191116 99 258 1.0 1.0 0.00 0.00 0.00 35 1015.9
20260831190610 100 185 1.0 1.0 0.00 0.00 0.00 36 1016.0
20260831190109 100 198 0.0 0.0 0.00 0.00 0.00 36 1016.1
20260831185604 100 193 1.0 1.0 0.00 0.00 0.00 37 1016.0
20260831185100 100 196 1.0 1.0 0.00 0.00 0.00 37 1016.1
20260831184559 98 225 1.0 2.0 0.00 0.00 0.00 38 1016.0
20260831184055 98 185 1.0 2.0 0.00 0.00 0.00 39 1016.4
20260831183554 99 235 0.0 1.0 0.00 0.00 0.00 38 1016.3
20260831183048 99 207 0.0 0.0 0.00 0.00 0.00 38 1016.3
20260831182542 99 33 0.0 0.0 0.00 0.00 0.00 38 1016.1
20260831182038 99 230 0.0 1.0 0.00 0.00 0.00 38 1016.5
20260831181532 99 221 0.0 0.0 0.00 0.00 0.00 37 1016.6
20260831181032 99 188 0.0 0.0 0.00 0.00 0.00 37 1016.8
20260831180527 100 184 1.0 2.0 0.00 0.00 0.00 38 1016.8
20260831180022 100 218 0.0 0.0 0.00 0.00 0.00 39 1017.0
20260831175517 99 236 1.0 1.0 0.00 0.00 0.00 38 1017.0
20260831175014 99 200 0.0 0.0 0.00 0.00 0.00 40 1017.1
20260831174509 99 193 0.0 0.0 0.00 0.00 0.00 39 1017.2
20260831174008 98 159 2.0 2.0 0.00 0.00 0.00 39 1017.3
20260831173506 98 207 1.0 1.0 0.00 0.00 0.00 41 1017.2
20260831173003 98 212 0.0 1.0 0.00 0.00 0.00 40 1017.3
20260831172458 98 196 0.0 1.0 0.00 0.00 0.00 41 1017.3
20260831171953 98 150 1.0 2.0 0.00 0.00 0.00 41 1017.4
20260831171448 98 197 0.0 0.0 0.00 0.00 0.00 41 1017.6
20260831170946 97 202 0.0 0.0 0.00 0.00 0.00 42 1017.7
20260831170441 97 192 0.0 0.0 0.00 0.00 0.00 41 1017.6
20260831165938 98 198 0.0 0.0 0.00 0.00 0.00 41 1017.8
20260831165428 97 194 0.0 0.0 0.00 0.00 0.00 42 1017.6
20260831164924 97 183 1.0 1.0 0.00 0.00 0.00 42 1017.8
20260831164420 96 210 0.0 0.0 0.00 0.00 0.00 44 1017.9
20260831163915 96 198 0.0 0.0 0.00 0.00 0.00 44 1017.8
20260831163411 96 209 0.0 0.0 0.00 0.00 0.00 44 1017.7
20260831162909 96 184 0.0 0.0 0.00 0.00 0.00 45 1017.8
20260831162405 96 180 0.0 0.0 0.00 0.00 0.00 45 1017.8
20260831161903 95 193 0.0 0.0 0.00 0.00 0.00 46 1017.8
20260831161400 94 197 0.0 1.0 0.00 0.00 0.00 47 1017.8
20260831160855 95 219 1.0 1.0 0.00 0.00 0.00 47 1017.8
20260831160350 94 202 0.0 0.0 0.00 0.00 0.00 47 1018.0
20260831155844 93 189 0.0 1.0 0.00 0.00 0.00 49 1017.9
20260831155338 92 206 0.0 0.0 0.00 0.00 0.00 50 1017.9
20260831154834 92 211 0.0 0.0 0.00 0.00 0.00 50 1017.8
20260831154330 91 215 0.0 0.0 0.00 0.00 0.00 51 1017.9
20260831153829 91 192 0.0 0.0 0.00 0.00 0.00 53 1018.0
20260831153325 90 190 0.0 0.0 0.00 0.00 0.00 54 1018.0
20260831152821 89 193 0.0 0.0 0.00 0.00 0.00 57 1017.9
20260831152316 89 194 0.0 0.0 0.00 0.00 0.00 57 1017.8
20260831151811 89 191 0.0 0.0 0.00 0.00 0.00 59 1017.7
20260831151310 88 187 0.0 0.0 0.00 0.00 0.00 59 1017.8
20260831150806 88 189 0.0 0.0 0.00 0.00 0.00 59 1017.8
20260831150301 87 208 0.0 0.0 0.00 0.00 0.00 61 1017.7
20260831145800 87 191 0.0 0.0 0.00 0.00 0.00 63 1017.8
20260831145256 86 197 0.0 0.0 0.00 0.00 0.00 63 1017.9
20260831144752 86 186 0.0 0.0 0.00 0.00 0.00 65 1017.7
20260831144248 85 188 0.0 0.0 0.00 0.00 0.00 64 1017.5
20260831143748 86 189 0.0 0.0 0.00 0.00 0.00 66 1017.8
20260831143243 85 228 0.0 0.0 0.00 0.00 0.00 66 1017.8
20260831142738 84 197 0.0 0.0 0.00 0.00 0.00 68 1017.7
20260831142234 84 199 0.0 0.0 0.00 0.00 0.00 68 1017.6
20260831141733 84 204 0.0 0.0 0.00 0.00 0.00 69 1017.9
20260831141228 84 189 0.0 0.0 0.00 0.00 0.00 69 1017.6
20260831140728 83 203 0.0 0.0 0.00 0.00 0.00 70 1017.7
20260831140222 83 209 0.0 0.0 0.00 0.00 0.00 70 1017.6
20260831135720 83 195 0.0 0.0 0.00 0.00 0.00 70 1017.6
20260831135216 83 212 0.0 0.0 0.00 0.00 0.00 71 1017.8
20260831134712 82 210 0.0 0.0 0.00 0.00 0.00 71 1017.6
20260831134208 82 184 0.0 0.0 0.00 0.00 0.00 71 1017.4
20260831133706 82 186 0.0 0.0 0.00 0.00 0.00 72 1017.4
20260831133201 82 197 0.0 0.0 0.00 0.00 0.00 73 1017.3
20260831132657 81 203 0.0 0.0 0.00 0.00 0.00 73 1017.2
20260831132156 81 194 0.0 0.0 0.00 0.00 0.00 73 1017.1
20260831131651 81 203 0.0 0.0 0.00 0.00 0.00 74 1017.1
20260831131148 80 190 0.0 0.0 0.00 0.00 0.00 74 1017.1
20260831130643 80 191 0.0 0.0 0.00 0.00 0.00 74 1017.1
20260831130138 80 191 0.0 0.0 0.00 0.00 0.00 75 1017.0
20260831125636 79 179 0.0 0.0 0.00 0.00 0.00 75 1016.9
20260831125132 79 201 0.0 0.0 0.00 0.00 0.00 75 1016.9
20260831124628 79 196 0.0 0.0 0.00 0.00 0.00 75 1016.9
20260831124124 79 196 0.0 0.0 0.00 0.00 0.00 75 1016.7
20260831123623 78 196 0.0 0.0 0.00 0.00 0.00 75 1016.7
20260831123123 78 196 0.0 0.0 0.00 0.00 0.00 75 1016.7
20260831122622 78 201 0.0 0.0 0.00 0.00 0.00 75 1016.5
20260831122118 78 204 0.0 0.0 0.00 0.00 0.00 75 1016.3
20260831121617 78 203 0.0 0.0 0.00 0.00 0.00 75 1016.3
20260831121114 78 203 0.0 0.0 0.00 0.00 0.00 75 1016.1
20260831120609 78 204 0.0 0.0 0.00 0.00 0.00 75 1016.4
20260831120104 79 198 0.0 0.0 0.00 0.00 0.00 75 1016.0
20260831115600 79 202 0.0 0.0 0.00 0.00 0.00 75 1015.8
20260831115056 79 202 0.0 0.0 0.00 0.00 0.00 75 1015.9
20260831114554 79 201 0.0 0.0 0.00 0.00 0.00 74 1015.8
20260831114049 79 201 0.0 0.0 0.00 0.00 0.00 74 1015.8
20260831113548 79 195 0.0 0.0 0.00 0.00 0.00 74 1015.9
20260831113045 79 196 0.0 0.0 0.00 0.00 0.00 74 1015.8
20260831112543 79 196 0.0 0.0 0.00 0.00 0.00 74 1015.5
20260831112039 79 196 0.0 0.0 0.00 0.00 0.00 73 1015.6
20260831111535 79 196 0.0 0.0 0.00 0.00 0.00 73 1015.5
20260831111030 80 196 0.0 0.0 0.00 0.00 0.00 73 1015.4
20260831110525 80 196 0.0 0.0 0.00 0.00 0.00 72 1015.2
20260831110020 80 196 0.0 0.0 0.00 0.00 0.00 72 1015.3
20260831105514 80 196 0.0 0.0 0.00 0.00 0.00 72 1015.5
20260831105009 80 195 0.0 0.0 0.00 0.00 0.00 72 1015.6
20260831104505 80 195 0.0 0.0 0.00 0.00 0.00 71 1015.4
20260831104001 80 195 0.0 0.0 0.00 0.00 0.00 71 1015.5
20260831103500 80 195 0.0 0.0 0.00 0.00 0.00 71 1015.5
20260831102957 80 193 0.0 0.0 0.00 0.00 0.00 70 1015.4
20260831102456 80 191 0.0 0.0 0.00 0.00 0.00 70 1015.4
20260831101952 80 194 0.0 0.0 0.00 0.00 0.00 69 1015.4
20260831101447 80 193 0.0 0.0 0.00 0.00 0.00 69 1015.4
20260831100943 80 197 0.0 0.0 0.00 0.00 0.00 69 1015.5
20260831100439 80 199 0.0 0.0 0.00 0.00 0.00 69 1015.3
20260831095934 81 201 0.0 0.0 0.00 0.00 0.00 68 1015.3
20260831095433 81 201 0.0 0.0 0.00 0.00 0.00 68 1015.3
20260831094928 81 201 0.0 0.0 0.00 0.00 0.00 68 1015.4
20260831094424 81 193 0.0 0.0 0.00 0.00 0.00 68 1015.3
20260831093920 81 196 0.0 0.0 0.00 0.00 0.00 68 1015.3
20260831093414 81 194 0.0 0.0 0.00 0.00 0.00 67 1015.4
20260831092911 81 193 0.0 0.0 0.00 0.00 0.00 67 1015.1
20260831092407 81 198 0.0 0.0 0.00 0.00 0.00 67 1015.1
20260831091901 81 200 0.0 0.0 0.00 0.00 0.00 67 1014.9
20260831091357 81 196 0.0 0.0 0.00 0.00 0.00 66 1015.1
20260831090852 81 195 0.0 0.0 0.00 0.00 0.00 66 1015.0
20260831090348 81 195 0.0 0.0 0.00 0.00 0.00 65 1015.0
20260831085845 82 196 0.0 0.0 0.00 0.00 0.00 65 1015.1
20260831085345 81 196 0.0 0.0 0.00 0.00 0.00 65 1015.0
20260831084844 81 191 0.0 0.0 0.00 0.00 0.00 64 1015.1
20260831084341 82 197 0.0 0.0 0.00 0.00 0.00 64 1015.0
20260831083837 82 198 0.0 0.0 0.00 0.00 0.00 64 1015.0
20260831083332 82 199 0.0 0.0 0.00 0.00 0.00 63 1015.0
20260831082831 82 201 0.0 0.0 0.00 0.00 0.00 63 1015.0
20260831082326 82 197 0.0 0.0 0.00 0.00 0.00 62 1014.9
20260831081822 82 198 0.0 0.0 0.00 0.00 0.00 62 1014.9
20260831081317 82 198 0.0 0.0 0.00 0.00 0.00 62 1014.8
20260831080812 82 198 0.0 0.0 0.00 0.00 0.00 61 1014.8
20260831080307 82 198 0.0 0.0 0.00 0.00 0.00 61 1014.7
20260831075803 82 199 0.0 0.0 0.00 0.00 0.00 60 1014.8
20260831075258 82 199 0.0 0.0 0.00 0.00 0.00 60 1014.6
20260831074758 82 196 0.0 0.0 0.00 0.00 0.00 61 1014.5
20260831074251 82 196 0.0 0.0 0.00 0.00 0.00 61 1014.7
20260831073748 81 196 0.0 0.0 0.00 0.00 0.00 62 1014.7
20260831073246 81 201 0.0 0.0 0.00 0.00 0.00 62 1014.6
20260831072741 81 209 0.0 0.0 0.00 0.00 0.00 63 1014.6
20260831072238 81 203 0.0 0.0 0.00 0.00 0.00 63 1014.6
20260831071739 81 202 0.0 0.0 0.00 0.00 0.00 63 1014.6
20260831071233 81 202 0.0 0.0 0.00 0.00 0.00 63 1014.6
20260831070733 82 202 0.0 0.0 0.00 0.00 0.00 62 1014.7
20260831070226 82 203 0.0 0.0 0.00 0.00 0.00 61 1014.9
20260831065725 82 203 0.0 0.0 0.00 0.00 0.00 61 1014.8
20260831065224 82 203 0.0 0.0 0.00 0.00 0.00 61 1014.6
20260831064719 82 203 0.0 0.0 0.00 0.00 0.00 60 1014.6
20260831064214 82 203 0.0 0.0 0.00 0.00 0.00 60 1014.6
20260831063710 83 203 0.0 0.0 0.00 0.00 0.00 60 1014.7
20260831063205 83 202 0.0 0.0 0.00 0.00 0.00 60 1014.7
20260831062705 83 202 0.0 0.0 0.00 0.00 0.00 60 1014.7
20260831062206 83 202 0.0 0.0 0.00 0.00 0.00 60 1014.6
20260831061703 83 203 0.0 0.0 0.00 0.00 0.00 59 1014.7
20260831061159 83 203 0.0 0.0 0.00 0.00 0.00 59 1014.7
20260831060655 83 203 0.0 0.0 0.00 0.00 0.00 59 1014.6
20260831060155 83 203 0.0 0.0 0.00 0.00 0.00 59 1014.6
20260831055654 83 203 0.0 0.0 0.00 0.00 0.00 59 1014.8
20260831055149 84 202 0.0 0.0 0.00 0.00 0.00 58 1014.7
20260831054644 84 202 0.0 0.0 0.00 0.00 0.00 58 1014.7
20260831054143 84 202 0.0 0.0 0.00 0.00 0.00 58 1014.7
20260831053638 84 202 0.0 0.0 0.00 0.00 0.00 57 1014.7
20260831053137 84 202 0.0 0.0 0.00 0.00 0.00 57 1014.6
20260831052636 84 202 0.0 0.0 0.00 0.00 0.00 57 1014.6
20260831052135 84 202 0.0 0.0 0.00 0.00 0.00 56 1014.5
20260831051634 85 202 0.0 0.0 0.00 0.00 0.00 56 1014.6
20260831051127 85 202 0.0 0.0 0.00 0.00 0.00 56 1014.5
20260831050621 85 202 0.0 0.0 0.00 0.00 0.00 55 1014.4
20260831050115 86 202 0.0 0.0 0.00 0.00 0.00 54 1014.5
20260831045614 86 202 0.0 0.0 0.00 0.00 0.00 53 1014.5
20260831045110 86 202 0.0 0.0 0.00 0.00 0.00 53 1014.6
20260831044605 86 202 0.0 0.0 0.00 0.00 0.00 53 1014.5
20260831044100 87 196 0.0 0.0 0.00 0.00 0.00 52 1014.5
20260831043555 87 201 0.0 0.0 0.00 0.00 0.00 52 1014.6
20260831043050 87 201 0.0 0.0 0.00 0.00 0.00 51 1014.4
20260831042549 87 201 0.0 0.0 0.00 0.00 0.00 51 1014.6
20260831042046 87 202 0.0 0.0 0.00 0.00 0.00 51 1014.4
20260831041540 87 201 0.0 0.0 0.00 0.00 0.00 50 1014.4
20260831041039 88 201 0.0 0.0 0.00 0.00 0.00 50 1014.4
20260831040534 88 202 0.0 0.0 0.00 0.00 0.00 50 1014.4
20260831040033 88 200 0.0 0.0 0.00 0.00 0.00 50 1014.3
20260831035526 88 202 0.0 0.0 0.00 0.00 0.00 50 1014.2
20260831035021 88 202 0.0 0.0 0.00 0.00 0.00 49 1014.3
20260831034515 88 204 0.0 0.0 0.00 0.00 0.00 49 1014.3
20260831034010 89 204 0.0 0.0 0.00 0.00 0.00 49 1014.1
20260831033506 89 204 0.0 0.0 0.00 0.00 0.00 48 1014.1
20260831033001 89 204 0.0 0.0 0.00 0.00 0.00 49 1014.1
20260831032501 89 203 0.0 0.0 0.00 0.00 0.00 48 1014.1
20260831031956 89 186 0.0 0.0 0.00 0.00 0.00 49 1014.1
20260831031456 89 199 0.0 0.0 0.00 0.00 0.00 48 1014.1
20260831030955 89 199 0.0 0.0 0.00 0.00 0.00 48 1014.0
20260831030454 89 199 0.0 0.0 0.00 0.00 0.00 48 1014.2
20260831025953 89 199 0.0 0.0 0.00 0.00 0.00 47 1014.2
20260831025452 90 201 0.0 0.0 0.00 0.00 0.00 47 1014.0
20260831024948 90 191 0.0 0.0 0.00 0.00 0.00 47 1014.0
20260831024443 90 204 0.0 0.0 0.00 0.00 0.00 46 1013.9
20260831023942 90 202 0.0 0.0 0.00 0.00 0.00 46 1013.8
20260831023441 91 199 0.0 0.0 0.00 0.00 0.00 46 1013.6
20260831022936 91 201 0.0 0.0 0.00 0.00 0.00 45 1013.7
20260831022435 91 208 0.0 0.0 0.00 0.00 0.00 45 1013.6
20260831021930 91 192 0.0 0.0 0.00 0.00 0.00 45 1013.6
20260831021429 91 196 0.0 0.0 0.00 0.00 0.00 45 1013.5
20260831020926 91 204 0.0 0.0 0.00 0.00 0.00 44 1013.4
20260831020425 91 194 0.0 0.0 0.00 0.00 0.00 44 1013.2
20260831015920 92 197 0.0 0.0 0.00 0.00 0.00 44 1013.1
20260831015416 92 209 0.0 0.0 0.00 0.00 0.00 44 1013.2
20260831014911 92 206 0.0 0.0 0.00 0.00 0.00 43 1013.0
20260831014411 92 205 0.0 0.0 0.00 0.00 0.00 43 1013.2
20260831013906 92 193 0.0 0.0 0.00 0.00 0.00 43 1013.2
20260831013402 92 202 0.0 0.0 0.00 0.00 0.00 43 1013.0
20260831012857 92 201 0.0 0.0 0.00 0.00 0.00 43 1013.1
20260831012352 92 204 0.0 0.0 0.00 0.00 0.00 43 1012.9
20260831011851 93 191 0.0 0.0 0.00 0.00 0.00 43 1013.0
20260831011346 93 199 0.0 0.0 0.00 0.00 0.00 43 1013.1
20260831010837 93 197 0.0 0.0 0.00 0.00 0.00 42 1012.8
20260831010336 93 200 0.0 0.0 0.00 0.00 0.00 41 1012.8
20260831005832 94 197 0.0 0.0 0.00 0.00 0.00 41 1012.6
20260831005328 94 219 0.0 0.0 0.00 0.00 0.00 41 1012.8
20260831004827 94 203 1.0 1.0 0.00 0.00 0.00 40 1012.8
20260831004324 95 277 0.0 1.0 0.00 0.00 0.00 40 1012.7
20260831003819 95 202 0.0 0.0 0.00 0.00 0.00 40 1012.6
20260831003316 95 196 0.0 0.0 0.00 0.00 0.00 40 1012.6
20260831002815 95 212 0.0 0.0 0.00 0.00 0.00 40 1012.5
20260831002314 95 204 0.0 0.0 0.00 0.00 0.00 40 1012.8
20260831001810 95 196 0.0 0.0 0.00 0.00 0.00 40 1012.9
20260831001305 96 198 0.0 0.0 0.00 0.00 0.00 40 1012.8
20260831000803 96 203 0.0 1.0 0.00 0.00 0.00 40 1012.8
20260831000303 96 225 0.0 0.0 0.00 0.00 0.00 40 1012.9
20260830235800 97 209 0.0 1.0 0.00 0.00 0.00 40 1012.9
20260830235255 97 202 0.0 0.0 0.00 0.00 0.00 39 1012.8
20260830234750 97 199 0.0 0.0 0.00 0.00 0.00 39 1012.8
20260830234247 97 231 0.0 1.0 0.00 0.00 0.00 39 1012.7